This is the latest recevied weather packets stored in our database for station/object DL8BGD. If no packets are shown the sender has not sent any weather packets the latest 10 day(s).
| Time | Temp. | Humidity | Pressure | Rain* | Wind** | Luminosity | Snow |
|---|---|---|---|---|---|---|---|
| 1788028355 | 18.33° C | 68% | 1021 hPa | 0 mm | - | - | - |
| 1788027154 | 18.89° C | 67% | 1020.8 hPa | 0 mm | - | - | - |
| 1788026554 | 18.89° C | 66% | 1020.7 hPa | 0 mm | - | - | - |
| 1788025954 | 19.44° C | 66% | 1020.5 hPa | 0 mm | - | - | - |
| 1788025353 | 19.44° C | 65% | 1020.5 hPa | 0 mm | - | - | - |
| 1788024753 | 20° C | 64% | 1020.6 hPa | 0 mm | - | - | - |
| 1788024153 | 20° C | 63% | 1020.5 hPa | 0 mm | - | - | - |
| 1788023552 | 21.11° C | 61% | 1020.5 hPa | 0 mm | - | - | - |
| 1788022952 | 21.11° C | 61% | 1020.6 hPa | 0 mm | - | - | - |
| 1788022352 | 21.67° C | 60% | 1020.6 hPa | 0 mm | - | - | - |
| 1788021751 | 21.67° C | 58% | 1020.6 hPa | 0 mm | - | - | - |
| 1788021151 | 22.22° C | 55% | 1020.7 hPa | 0 mm | - | - | - |
| 1788020550 | 22.22° C | 53% | 1020.6 hPa | 0 mm | - | - | - |
| 1788019950 | 22.22° C | 51% | 1020.6 hPa | 0 mm | - | - | - |
| 1788019350 | 22.22° C | 49% | 1020.6 hPa | 0 mm | - | - | - |
| 1788018749 | 22.22° C | 47% | 1020.5 hPa | 0 mm | - | - | - |
| 1788018149 | 22.78° C | 48% | 1020.6 hPa | 0 mm | - | - | - |
| 1788017549 | 22.78° C | 52% | 1020.5 hPa | 0 mm | - | - | - |
| 1788016948 | 22.78° C | 50% | 1020.4 hPa | 0 mm | - | - | - |
| 1788016348 | 23.33° C | 47% | 1020.4 hPa | 0 mm | - | - | - |
| 1788015747 | 22.78° C | 52% | 1020.4 hPa | 0 mm | - | - | - |
| 1788015147 | 22.78° C | 52% | 1020.4 hPa | 0 mm | - | - | - |
| 1788014547 | 22.78° C | 52% | 1020.5 hPa | 0 mm | - | - | - |
| 1788013946 | 23.33° C | 47% | 1020.6 hPa | 0 mm | - | - | - |
| 1788013346 | 23.33° C | 46% | 1020.6 hPa | 0 mm | - | - | - |
* Rain since midnight (hover to see other rain measurements)
** Current wind speed in m/s (hover to see current wind gust speed)